Location: Wildlife_Club
(35.6000°N, 81.4330°W)
Time: 10:09:52
(UTC-04:00)

Amateur Radio Satellites - All Passes

Search period start: 01 September 2015 09:39
Search period end: 02 September 2015 09:39
Location: Wildlife_Club, 35.6000°N, 81.4330°W

Satellite Date Start Highest point End Downlink Frequencies (MHz)
Time Altitude Azimuth
CUTE 1.7 + AOD 2 01 Sep 09:40:48 09:44:52 47° 99° (E) 09:48:55 437.475
CINEMA 3 01 Sep 09:45:24 09:49:54 34° 95° (E) 09:54:18 145.822/145.860
CUSAT 1 01 Sep 09:50:05 09:50:39 10° 59° (ENE) 09:51:58 437.405
Cosmos 2504 01 Sep 09:52:45 09:57:59 18° 64° (ENE) 10:03:29 435.465 / 435.565
HO-68 01 Sep 09:53:20 10:00:30 67° 103° (ESE) 10:07:39 435.675
CANX-2 01 Sep 09:54:45 09:58:59 81° 101° (ESE) 10:03:11 2200.000
UNISAT 6 01 Sep 09:59:48 10:01:51 13° 67° (ENE) 10:04:08 437.425
BRITE-PL 01 Sep 10:01:54 10:06:35 28° 290° (WNW) 10:11:16 437.365/2234.400
Cosmos 2491 01 Sep 10:13:13 10:21:55 75° 278° (W) 10:30:39 435.465 / 435.565
SEEDS 01 Sep 10:15:29 10:19:41 81° 283° (WNW) 10:23:50 437.485
DANDE 01 Sep 10:18:41 10:21:37 13° 63° (ENE) 10:25:19 436.750
Oscar 11 01 Sep 10:23:44 10:27:33 31° 96° (E) 10:31:23 145.826/435.025
TIGRISAT 01 Sep 10:26:21 10:30:03 24° 70° (ENE) 10:33:53 435.000
PCSat 01 Sep 10:27:28 10:29:56 13° 45° (NE) 10:32:38 145.827
GOMX 1 01 Sep 10:28:59 10:33:26 25° 291° (WNW) 10:37:44 467.674
PHONESAT 2.4 01 Sep 10:29:04 10:32:26 60° 18° (NNE) 10:35:48 2401.200-2431.200
COMPASS 1 01 Sep 10:36:45 10:40:50 57° 284° (WNW) 10:44:53 437.405
DOVE 4 01 Sep 10:40:18 10:44:54 30° 290° (WNW) 10:49:21 437.250
ISS 01 Sep 10:42:02 10:43:50 14° 334° (NNW) 10:45:34 145.825
ANTELSAT 01 Sep 10:42:57 10:47:16 38° 73° (ENE) 10:51:39 437.575/2403.000
AAUSAT CUBESAT 2 01 Sep 10:46:36 10:50:38 52° 285° (WNW) 10:54:37 437.432
SO-50 01 Sep 10:48:28 10:53:24 68° 59° (ENE) 10:58:09 436.795
AUBIESAT-1 01 Sep 10:56:07 11:00:46 58° 70° (ENE) 11:05:22 437.475
M-CUBED/EXP-1 PRIME 01 Sep 11:01:44 11:06:32 79° 72° (ENE) 11:11:19 437.505
POLYITAN 1 01 Sep 11:02:26 11:05:33 21° 70° (ENE) 11:08:48 437.675
POPSAT HIP 1 01 Sep 11:04:48 11:07:56 21° 70° (ENE) 11:11:14 437.405
DUCHIFAT 1 01 Sep 11:04:54 11:07:58 20° 70° (ENE) 11:11:10 145.980
DELFI C3 01 Sep 11:07:18 11:11:17 68° 100° (E) 11:15:13 145.870
ZACube-1 01 Sep 11:07:29 11:11:58 67° 101° (E) 11:16:18 437.345
CUBEBUG 2 01 Sep 11:09:27 11:14:06 66° 284° (WNW) 11:18:34 437.445
BUGSAT 1 01 Sep 11:11:29 11:13:31 14° 68° (ENE) 11:15:45 437.445
FUNcube-1 01 Sep 11:12:39 11:17:08 75° 101° (E) 11:21:28 145.935
UWE-3 01 Sep 11:15:25 11:20:00 73° 283° (WNW) 11:24:25 435.000/436.395/437.385
CUTE 1.7 + AOD 2 01 Sep 11:18:29 11:20:24 13° 292° (WNW) 11:22:06 437.475
QB50P2 01 Sep 11:21:09 11:24:59 34° 72° (ENE) 11:28:52 145.880/145.840
NANOSAT C BR1 01 Sep 11:21:49 11:25:35 32° 72° (ENE) 11:29:26 145.865
CINEMA 3 01 Sep 11:22:56 11:26:53 23° 291° (WNW) 11:30:38 145.822/145.860
CUSAT 1 01 Sep 11:27:02 11:34:50 59° 78° (ENE) 11:42:55 437.405
YUBILEINY 01 Sep 11:30:38 11:34:17 12° 281° (W) 11:37:09 435.215
UNISAT 6 01 Sep 11:33:34 11:38:09 58° 260° (W) 11:42:50 437.425
QB50P1 01 Sep 11:35:22 11:39:26 49° 74° (ENE) 11:43:35 145.935-145.965
HO-68 01 Sep 11:42:22 11:47:42 22° 298° (WNW) 11:52:45 435.675
Cosmos 2504 01 Sep 11:42:56 11:51:25 80° 265° (W) 11:59:18 435.465 / 435.565
50 SAT 01 Sep 11:43:15 11:46:16 22° 95° (E) 11:49:20 437.505
HUMSAT D 01 Sep 11:48:27 11:52:41 74° 100° (E) 11:56:51 437.325/437.525
DX 1 01 Sep 11:52:24 11:56:33 41° 99° (E) 12:00:43 434.975-435.025
DANDE 01 Sep 11:58:11 12:05:58 70° 80° (E) 12:14:30 436.750
Oscar 11 01 Sep 12:00:25 12:03:32 19° 290° (WNW) 12:06:31 145.826/435.025
TIGRISAT 01 Sep 12:02:35 12:06:40 29° 264° (W) 12:10:44 435.000
UKube-1 01 Sep 12:04:07 12:08:22 51° 100° (E) 12:12:35 .
ESTCUBE 1 01 Sep 12:05:32 12:09:19 27° 95° (E) 12:13:11 437.505/2401.250
PHONESAT 2.4 01 Sep 12:07:12 12:10:11 28° 212° (SSW) 12:13:09 2401.200-2431.200
PCSat 01 Sep 12:08:44 12:14:11 88° 246° (WSW) 12:19:36 145.827
CUBEBUG 1 01 Sep 12:15:45 12:19:33 28° 96° (E) 12:23:25 437.445
AISAT 01 Sep 12:16:27 12:20:50 51° 100° (E) 12:25:12 437.250
Cosmos 2491 01 Sep 12:17:15 12:20:40 12° 300° (WNW) 12:23:21 435.465 / 435.565
ANTELSAT 01 Sep 12:20:53 12:24:12 18° 268° (W) 12:27:22 437.575/2403.000
SO-50 01 Sep 12:31:34 12:33:24 12° 252° (WSW) 12:34:54 436.795
AUBIESAT-1 01 Sep 12:33:21 12:35:46 13° 265° (W) 12:37:55 437.475
POLYITAN 1 01 Sep 12:37:34 12:41:17 28° 264° (W) 12:44:59 437.675
DUCHIFAT 1 01 Sep 12:39:55 12:43:36 28° 264° (W) 12:47:16 145.980
POPSAT HIP 1 01 Sep 12:40:01 12:43:40 27° 264° (W) 12:47:18 437.405
VELOX 1 01 Sep 12:44:26 12:48:55 78° 284° (WNW) 12:53:22 145.980
BUGSAT 1 01 Sep 12:44:51 12:48:40 39° 262° (W) 12:52:31 437.445
ZACube-1 01 Sep 12:47:09 12:47:46 10° 295° (WNW) 12:48:05 437.345
QB50P2 01 Sep 12:58:09 13:00:59 17° 268° (W) 13:03:41 145.880/145.840
NANOSAT C BR1 01 Sep 12:58:37 13:01:31 17° 267° (W) 13:04:17 145.865
CUSAT 1 01 Sep 13:10:24 13:17:03 28° 271° (W) 13:23:34 437.405
TISAT 1 01 Sep 13:11:31 13:14:32 19° 93° (E) 13:17:41 437.305
QB50P1 01 Sep 13:14:03 13:15:39 11° 270° (W) 13:16:57 145.935-145.965
50 SAT 01 Sep 13:17:45 13:20:42 20° 289° (WNW) 13:23:31 437.505
JUGNU 01 Sep 13:20:25 13:23:07 13° 170° (S) 13:25:54 437.505
DX 1 01 Sep 13:29:49 13:32:29 16° 292° (WNW) 13:35:00 434.975-435.025
Cosmos 2504 01 Sep 13:39:07 13:42:21 12° 282° (WNW) 13:44:51 435.465 / 435.565
UKube-1 01 Sep 13:42:05 13:44:05 13° 293° (WNW) 13:45:52 .
ESTCUBE 1 01 Sep 13:42:27 13:46:06 24° 290° (WNW) 13:49:38 437.505/2401.250
DANDE 01 Sep 13:42:35 13:48:44 24° 272° (W) 13:54:54 436.750
SPROUT 01 Sep 13:44:36 13:48:58 88° 283° (WNW) 13:53:17 437.525
CUBEBUG 1 01 Sep 13:52:19 13:55:47 22° 290° (WNW) 13:59:08 437.445
AISAT 01 Sep 13:54:44 13:57:00 13° 293° (WNW) 13:59:03 437.250
Oscar 19 01 Sep 13:56:06 14:01:11 65° 74° (ENE) 14:06:20 437.125/150
JAS-2 01 Sep 14:03:55 14:08:35 18° 61° (ENE) 14:13:42 435.910
GONETS M04 01 Sep 14:17:03 14:25:28 49° 77° (ENE) 14:33:59
BEESAT 01 Sep 14:17:19 14:20:18 17° 92° (E) 14:23:28 436.000
AO-7 01 Sep 14:23:29 14:26:16 12° 52° (NE) 14:29:36 29.400- 29.500
SRMSAT 01 Sep 14:32:53 14:34:07 11° 167° (SSE) 14:35:28 437.500
Gurwin Techsat 1B 01 Sep 14:42:11 14:47:19 54° 74° (ENE) 14:52:31 435.225
SWISSCUBE 01 Sep 14:42:19 14:46:39 35° 97° (E) 14:51:01 437.505
Cosmos 2499 01 Sep 14:44:17 14:49:21 17° 63° (ENE) 14:54:43 435.465 / 435.565
TISAT 1 01 Sep 14:46:35 14:50:21 30° 288° (WNW) 14:54:02 437.305
BEESAT 3 01 Sep 14:46:45 14:50:16 30° 113° (ESE) 14:53:52 437.485
ITAMSAT 1 01 Sep 14:56:23 15:01:29 61° 74° (ENE) 15:06:35 435.822/435.867
BEESAT 2 01 Sep 14:59:45 15:03:20 31° 114° (ESE) 15:07:00 435.950
JUGNU 01 Sep 15:07:45 15:11:25 17° 180° (S) 15:15:04 437.505
KKS-1 01 Sep 15:19:26 15:20:23 11° 90° (E) 15:21:40 437.445
ITUPSAT 1 01 Sep 15:20:51 15:25:38 84° 104° (ESE) 15:30:25 437.325
HORYU 2 01 Sep 15:26:06 15:27:51 12° 66° (ENE) 15:29:51 437.375
ISS 01 Sep 15:34:03 15:36:47 25° 33° (NNE) 15:39:33 145.825
RS-15 01 Sep 15:34:41 15:43:51 35° 107° (ESE) 15:53:36 29.354- 29.394
Oscar 19 01 Sep 15:38:51 15:41:05 12° 271° (W) 15:43:00 437.125/150
AIST 2 01 Sep 15:41:43 15:44:21 17° 111° (ESE) 15:47:10 435.215
JAS-2 01 Sep 15:45:05 15:52:42 89° 256° (WSW) 16:00:39 435.910
BEESAT 01 Sep 15:53:53 15:58:22 41° 288° (WNW) 16:02:48 436.000
AO-7 01 Sep 16:09:29 16:17:42 65° 69° (ENE) 16:25:56 29.400- 29.500
GONETS M04 01 Sep 16:14:28 16:22:03 32° 273° (W) 16:29:24
SRMSAT 01 Sep 16:19:01 16:22:33 16° 176° (S) 16:26:05 437.500
SWISSCUBE 01 Sep 16:20:44 16:24:18 21° 291° (WNW) 16:27:44 437.505
Gurwin Techsat 1B 01 Sep 16:24:26 16:27:43 16° 269° (W) 16:30:43 435.225
BEESAT 3 01 Sep 16:25:03 16:28:14 21° 309° (NW) 16:31:21 437.485
STARS 01 Sep 16:32:36 16:36:53 45° 99° (E) 16:41:08 437.465
Cosmos 2499 01 Sep 16:35:14 16:43:52 84° 265° (W) 16:51:51 435.465 / 435.565
BEESAT 2 01 Sep 16:38:15 16:41:25 21° 309° (NW) 16:44:33 435.950
ITAMSAT 1 01 Sep 16:38:54 16:41:28 13° 270° (W) 16:43:43 435.822/435.867
KKS-1 01 Sep 16:53:02 16:57:27 58° 286° (WNW) 17:01:51 437.445
JUGNU 01 Sep 16:56:51 16:59:41 14° 190° (S) 17:02:26 437.505
HORYU 2 01 Sep 16:59:38 17:04:03 56° 260° (W) 17:08:30 437.375
ISS 01 Sep 17:10:22 17:13:11 27° 228° (SW) 17:15:59 145.825
MOZHAYETS 4 01 Sep 17:11:02 17:14:56 28° 95° (E) 17:18:53
AIST 2 01 Sep 17:18:40 17:22:39 38° 304° (NW) 17:26:38 435.215
CUTE-I 01 Sep 17:29:48 17:31:03 11° 63° (ENE) 17:32:39 437.470
JAS-2 01 Sep 17:34:26 17:38:49 15° 275° (W) 17:42:44 435.910
RS-15 01 Sep 17:44:57 17:55:43 60° 306° (NW) 18:06:53 29.354- 29.394
AO-7 01 Sep 18:04:31 18:11:07 24° 267° (W) 18:17:22 29.400- 29.500
SRMSAT 01 Sep 18:07:35 18:10:59 16° 186° (S) 18:14:20 437.500
STARS 01 Sep 18:10:26 18:12:58 15° 293° (WNW) 18:15:18 437.465
O/OREOS (USA 219) 01 Sep 18:15:35 18:16:23 11° 99° (E) 18:17:31 437.305
Cubesat XI-IV 01 Sep 18:21:04 18:25:52 36° 71° (ENE) 18:30:44 437.490
Cosmos 2499 01 Sep 18:31:57 18:35:48 13° 281° (W) 18:38:51 435.465 / 435.565
MOZHAYETS 4 01 Sep 18:48:24 18:52:03 23° 290° (WNW) 18:55:35
CUTE-I 01 Sep 19:05:11 19:10:30 84° 255° (WSW) 19:15:52 437.470
CUBESAT XI-V 01 Sep 19:06:41 19:11:05 42° 98° (E) 19:15:31 437.345
STRAND 1 01 Sep 19:18:20 19:20:41 14° 90° (E) 19:23:20 437.568
AIST 1 01 Sep 19:29:27 19:33:21 32° 78° (ENE) 19:37:17
BRITE-PL 01 Sep 19:32:10 19:35:40 24° 69° (ENE) 19:39:27 437.365/2234.400
O/OREOS (USA 219) 01 Sep 19:50:53 19:55:20 58° 292° (WNW) 19:59:52 437.305
GOMX 1 01 Sep 19:56:20 20:00:02 26° 70° (ENE) 20:04:03 467.674
Cubesat XI-IV 01 Sep 20:01:46 20:06:05 24° 266° (W) 20:10:16 437.490
RS-15 01 Sep 20:03:55 20:11:27 19° 335° (NNW) 20:18:48 29.354- 29.394
DOVE 4 01 Sep 20:05:59 20:09:17 20° 68° (ENE) 20:12:53 437.250
HO-68 01 Sep 20:18:57 20:25:17 37° 67° (ENE) 20:31:46 435.675
Cosmos 2491 01 Sep 20:27:22 20:35:44 49° 77° (ENE) 20:44:10 435.465 / 435.565
CUTE 1.7 + AOD 2 01 Sep 20:31:07 20:34:30 24° 71° (ENE) 20:37:59 437.475
YUBILEINY 01 Sep 20:32:40 20:38:58 24° 84° (E) 20:45:42 435.215
CINEMA 3 01 Sep 20:44:28 20:48:03 23° 69° (ENE) 20:51:51 145.822/145.860
CANX-2 01 Sep 20:44:38 20:48:36 38° 74° (ENE) 20:52:37 2200.000
CUBESAT XI-V 01 Sep 20:45:12 20:48:13 17° 292° (WNW) 20:51:04 437.345
PRISM 01 Sep 20:46:05 20:50:13 89° 102° (ESE) 20:54:20 437.425
STRAND 1 01 Sep 20:55:19 21:00:20 59° 286° (WNW) 21:05:21 437.568
SEEDS 01 Sep 21:04:19 21:08:21 45° 74° (ENE) 21:12:26 437.485
AIST 1 01 Sep 21:07:55 21:10:46 17° 271° (W) 21:13:27
BRITE-PL 01 Sep 21:10:32 21:14:09 25° 267° (W) 21:17:54 437.365/2234.400
Oscar 11 01 Sep 21:16:27 21:19:18 18° 69° (ENE) 21:22:19 145.826/435.025
COMPASS 1 01 Sep 21:24:29 21:28:38 62° 76° (ENE) 21:32:48 437.405
AAUSAT CUBESAT 2 01 Sep 21:33:49 21:37:59 67° 76° (ENE) 21:42:08 437.432
GOMX 1 01 Sep 21:34:24 21:38:09 25° 267° (W) 21:42:01 467.674
DOVE 4 01 Sep 21:42:35 21:46:46 35° 264° (W) 21:51:12 437.250
DELFI C3 01 Sep 21:51:40 21:55:03 27° 72° (ENE) 21:58:30 145.870
ZACube-1 01 Sep 22:00:13 22:04:21 37° 73° (ENE) 22:08:36 437.345
CUBEBUG 2 01 Sep 22:03:58 22:08:34 72° 76° (ENE) 22:13:18 437.445
FUNcube-1 01 Sep 22:05:03 22:09:16 40° 73° (ENE) 22:13:35 145.935
HO-68 01 Sep 22:06:23 22:12:59 38° 263° (W) 22:19:32 435.675
CUTE 1.7 + AOD 2 01 Sep 22:06:47 22:10:21 24° 265° (W) 22:13:49 437.475
UWE-3 01 Sep 22:08:55 22:13:26 63° 75° (ENE) 22:18:04 435.000/436.395/437.385
CINEMA 3 01 Sep 22:20:50 22:25:02 33° 264° (W) 22:29:23 145.822/145.860
Cosmos 2504 01 Sep 22:21:49 22:25:01 13° 79° (E) 22:28:56 435.465 / 435.565
CANX-2 01 Sep 22:22:08 22:24:43 15° 268° (W) 22:27:06 2200.000
Cosmos 2491 01 Sep 22:24:47 22:32:20 32° 273° (W) 22:39:39 435.465 / 435.565
RS-15 01 Sep 22:24:57 22:30:29 14° 12° (NNE) 22:36:25 29.354- 29.394
YUBILEINY 01 Sep 22:26:29 22:35:11 64° 280° (W) 22:43:56 435.215
HUMSAT D 01 Sep 22:37:04 22:40:57 35° 73° (ENE) 22:44:55 437.325/437.525
SEEDS 01 Sep 22:42:33 22:44:26 12° 270° (W) 22:46:04 437.485
DX 1 01 Sep 22:45:33 22:49:03 25° 70° (ENE) 22:52:39 434.975-435.025
Oscar 11 01 Sep 22:51:16 22:55:15 34° 263° (W) 22:59:13 145.826/435.025
UKube-1 01 Sep 22:56:15 22:59:58 29° 71° (ENE) 23:03:45 .
ESTCUBE 1 01 Sep 23:03:05 23:06:05 18° 69° (ENE) 23:09:14 437.505/2401.250
CUBEBUG 1 01 Sep 23:10:01 23:12:43 17° 69° (ENE) 23:15:35 437.445
AISAT 01 Sep 23:11:28 23:15:20 31° 72° (ENE) 23:19:17 437.250
DELFI C3 01 Sep 23:27:08 23:30:08 19° 266° (W) 23:32:59 145.870
UNISAT 6 01 Sep 23:28:53 23:33:03 36° 97° (E) 23:37:10 437.425
ZACube-1 01 Sep 23:37:40 23:40:51 18° 268° (W) 23:43:54 437.345
VELOX 1 01 Sep 23:38:51 23:43:11 63° 75° (ENE) 23:47:33 145.980
FUNcube-1 01 Sep 23:42:50 23:45:47 16° 269° (W) 23:48:34 145.935
UWE-3 01 Sep 23:49:19 23:50:28 11° 272° (W) 23:51:17 435.000/436.395/437.385
TIGRISAT 01 Sep 23:56:44 00:01:18 76° 101° (ESE) 00:05:42 435.000
50 SAT 01 Sep 23:56:56 00:00:50 59° 260° (W) 00:04:45 437.505
TISAT 1 02 Sep 00:03:21 00:03:50 10° 66° (ENE) 00:04:35 437.305
Cosmos 2504 02 Sep 00:07:58 00:16:01 84° 95° (E) 00:24:37 435.465 / 435.565
HUMSAT D 02 Sep 00:13:55 00:16:49 17° 268° (W) 00:19:34 437.325/437.525
ANTELSAT 02 Sep 00:14:20 00:18:52 65° 285° (WNW) 00:23:14 437.575/2403.000
AUBIESAT-1 02 Sep 00:14:44 00:18:33 67° 105° (ESE) 00:22:03 437.475
M-CUBED/EXP-1 PRIME 02 Sep 00:21:09 00:25:03 80° 289° (WNW) 00:28:37 437.505
DX 1 02 Sep 00:21:42 00:25:15 24° 265° (W) 00:28:43 434.975-435.025
POLYITAN 1 02 Sep 00:25:10 00:29:25 56° 100° (E) 00:33:37 437.675
DUCHIFAT 1 02 Sep 00:26:46 00:30:58 54° 100° (E) 00:35:10 145.980
POPSAT HIP 1 02 Sep 00:27:18 00:31:33 58° 100° (E) 00:35:47 437.405
BUGSAT 1 02 Sep 00:29:40 00:33:35 35° 97° (E) 00:37:30 437.445
CUSAT 1 02 Sep 00:31:32 00:35:10 56° 94° (E) 00:40:03 437.405
UKube-1 02 Sep 00:32:54 00:36:08 20° 266° (W) 00:39:15 .
SPROUT 02 Sep 00:35:37 00:39:43 47° 74° (ENE) 00:43:53 437.525
RS-15 02 Sep 00:37:26 00:47:59 37° 44° (NE) 00:59:05 29.354- 29.394
ESTCUBE 1 02 Sep 00:38:35 00:42:43 35° 263° (W) 00:46:49 437.505/2401.250
QB50P2 02 Sep 00:44:32 00:48:51 82° 283° (WNW) 00:53:08 145.880/145.840
NANOSAT C BR1 02 Sep 00:44:38 00:48:57 86° 283° (WNW) 00:53:13 145.865
CUBEBUG 1 02 Sep 00:44:50 00:48:49 36° 263° (W) 00:52:48 437.445
BEESAT 3 02 Sep 00:44:58 00:48:59 87° 242° (WSW) 00:52:57 437.485
AISAT 02 Sep 00:48:44 00:51:59 19° 267° (W) 00:55:07 437.250
BEESAT 2 02 Sep 00:58:43 01:02:47 83° 239° (WSW) 01:06:45 435.950
QB50P1 02 Sep 00:58:53 01:03:07 56° 285° (WNW) 01:07:17 145.935-145.965
SO-50 02 Sep 00:59:48 01:04:16 44° 115° (ESE) 01:08:56 436.795
PCSat 02 Sep 01:06:05 01:09:35 18° 106° (ESE) 01:13:18 145.827
UNISAT 6 02 Sep 01:06:25 01:09:34 18° 292° (WNW) 01:12:31 437.425
DANDE 02 Sep 01:08:12 01:11:30 89° 100° (E) 01:15:56 436.750
BEESAT 02 Sep 01:21:44 01:24:18 15° 67° (ENE) 01:27:05 436.000
TISAT 1 02 Sep 01:34:59 01:39:08 59° 260° (W) 01:43:18 437.305
AIST 2 02 Sep 01:42:49 01:46:54 53° 58° (ENE) 01:50:54 435.215
SWISSCUBE 02 Sep 01:46:11 01:50:15 30° 71° (ENE) 01:54:25 437.505
POLYITAN 1 02 Sep 02:03:25 02:04:52 11° 293° (WNW) 02:06:04 437.675
Cosmos 2504 02 Sep 02:04:04 02:09:32 18° 296° (WNW) 02:14:39 435.465 / 435.565
DUCHIFAT 1 02 Sep 02:04:48 02:06:20 11° 293° (WNW) 02:07:37 145.980
POPSAT HIP 1 02 Sep 02:05:43 02:06:58 11° 293° (WNW) 02:07:58 437.405
BUGSAT 1 02 Sep 02:05:56 02:08:47 17° 291° (WNW) 02:11:29 437.445
VERMONT LUNAR 02 Sep 02:08:05 02:09:06 11° 144° (SE) 02:10:14 437.305
Oscar 19 02 Sep 02:11:08 02:15:35 29° 95° (E) 02:20:06 437.125/150
SPROUT 02 Sep 02:14:14 02:16:07 12° 270° (W) 02:17:45 437.525
ITUPSAT 1 02 Sep 02:24:33 02:29:18 69° 76° (ENE) 02:34:04 437.325
SO-50 02 Sep 02:41:19 02:45:03 21° 312° (NW) 02:48:46 436.795
PCSat 02 Sep 02:47:22 02:52:38 51° 301° (WNW) 02:57:55 145.827
RS-15 02 Sep 02:49:35 03:01:25 68° 246° (WSW) 03:13:30 29.354- 29.394
BEESAT 02 Sep 02:57:07 03:01:46 51° 260° (W) 03:06:25 436.000
Gurwin Techsat 1B 02 Sep 03:01:52 03:06:18 27° 95° (E) 03:10:50 435.225
JAS-2 02 Sep 03:02:08 03:05:15 14° 85° (E) 03:08:38 435.910
ITAMSAT 1 02 Sep 03:12:42 03:17:02 27° 95° (E) 03:21:29 435.822/435.867
GONETS M04 02 Sep 03:13:58 03:22:26 62° 92° (E) 03:31:00
Cosmos 2499 02 Sep 03:18:50 03:22:34 14° 80° (E) 03:27:05 435.465 / 435.565
AIST 2 02 Sep 03:23:46 03:25:01 11° 251° (WSW) 03:26:02 435.215
SWISSCUBE 02 Sep 03:24:13 03:28:07 24° 265° (W) 03:31:55 437.505
STARS 02 Sep 03:26:49 03:30:33 28° 71° (ENE) 03:34:22 437.465
VERMONT LUNAR 02 Sep 03:42:12 03:45:11 76° 157° (SSE) 03:48:11 437.305
KKS-1 02 Sep 03:47:51 03:52:18 88° 79° (E) 03:56:48 437.445
Oscar 19 02 Sep 03:50:25 03:54:54 29° 290° (WNW) 03:59:16 437.125/150
MOZHAYETS 4 02 Sep 04:10:40 04:13:56 20° 70° (ENE) 04:17:21
AO-7 02 Sep 04:15:34 04:21:51 25° 94° (E) 04:28:26 29.400- 29.500
O/OREOS (USA 219) 02 Sep 04:26:03 04:28:33 15° 56° (ENE) 04:31:14 437.305
Gurwin Techsat 1B 02 Sep 04:41:36 04:46:17 32° 290° (WNW) 04:50:54 435.225
JAS-2 02 Sep 04:44:31 04:51:24 75° 286° (WNW) 04:57:24 435.910
PHONESAT 2.4 02 Sep 04:49:46 04:52:31 23° 147° (SSE) 04:55:16 2401.200-2431.200
ITAMSAT 1 02 Sep 04:52:01 04:56:32 31° 290° (WNW) 05:01:00 435.822/435.867
HORYU 2 02 Sep 04:53:59 04:58:00 33° 97° (E) 05:02:02 437.375
STARS 02 Sep 05:03:30 05:06:59 22° 266° (W) 05:10:23 437.465
Cosmos 2499 02 Sep 05:06:09 05:14:34 86° 96° (E) 05:23:28 435.465 / 435.565
RS-15 02 Sep 05:07:44 05:12:22 12° 260° (W) 05:15:37 29.354- 29.394
GONETS M04 02 Sep 05:12:59 05:19:58 25° 292° (WNW) 05:26:41
VERMONT LUNAR 02 Sep 05:19:01 05:21:46 33° 352° (N) 05:24:31 437.305
MOZHAYETS 4 02 Sep 05:46:44 05:50:58 34° 263° (W) 05:55:08
O/OREOS (USA 219) 02 Sep 06:03:53 06:08:21 50° 253° (WSW) 06:12:45 437.305
AO-7 02 Sep 06:07:04 06:15:15 64° 291° (WNW) 06:23:21 29.400- 29.500
CUBESAT XI-V 02 Sep 06:07:27 06:11:22 29° 72° (ENE) 06:15:23 437.345
PHONESAT 2.4 02 Sep 06:26:47 06:30:11 71° 342° (NNW) 06:33:35 2401.200-2431.200
HORYU 2 02 Sep 06:31:13 06:34:25 19° 291° (WNW) 06:37:29 437.375
STRAND 1 02 Sep 06:31:34 06:34:25 16° 66° (ENE) 06:37:30 437.568
JAS-2 02 Sep 06:33:16 06:35:13 11° 303° (WNW) 06:36:40 435.910
Cubesat XI-IV 02 Sep 06:42:06 06:45:36 18° 92° (E) 06:49:19 437.490
VERMONT LUNAR 02 Sep 06:55:48 06:58:34 34° 9° (N) 07:01:19 437.305
Cosmos 2499 02 Sep 07:03:20 07:09:05 18° 297° (WNW) 07:14:28 435.465 / 435.565
CUTE-I 02 Sep 07:25:23 07:30:32 50° 99° (E) 07:35:43 437.470
PRISM 02 Sep 07:33:07 07:36:57 41° 73° (ENE) 07:40:50 437.425
BRITE-PL 02 Sep 07:40:14 07:42:49 14° 89° (E) 07:45:45 437.365/2234.400
CUBESAT XI-V 02 Sep 07:45:12 07:48:50 22° 266° (W) 07:52:23 437.345
AIST 1 02 Sep 07:56:25 07:59:37 22° 90° (E) 08:02:56
GOMX 1 02 Sep 08:02:18 08:04:23 12° 88° (E) 08:06:50 467.674
AO-7 02 Sep 08:03:37 08:06:39 12° 308° (NW) 08:09:07 29.400- 29.500
PHONESAT 2.4 02 Sep 08:05:11 08:08:21 34° 357° (N) 08:11:30 2401.200-2431.200
STRAND 1 02 Sep 08:08:14 08:13:13 55° 260° (W) 08:18:14 437.568
ISS 02 Sep 08:10:53 08:13:50 33° 133° (SE) 08:16:49 145.825
Cubesat XI-IV 02 Sep 08:20:54 08:26:00 47° 288° (WNW) 08:31:05 437.490
VERMONT LUNAR 02 Sep 08:32:09 08:35:06 67° 205° (SSW) 08:38:03 437.305
YUBILEINY 02 Sep 08:40:23 08:49:01 57° 78° (ENE) 08:57:38 435.215
CUTE-I 02 Sep 09:06:36 09:10:17 19° 294° (WNW) 09:13:46 437.470
PRISM 02 Sep 09:10:43 09:12:38 13° 268° (W) 09:14:19 437.425
COMPASS 1 02 Sep 09:12:48 09:14:20 12° 90° (E) 09:16:06 437.405
BRITE-PL 02 Sep 09:16:15 09:21:49 71° 284° (WNW) 09:27:30 437.365/2234.400
AAUSAT CUBESAT 2 02 Sep 09:21:25 09:23:12 13° 91° (E) 09:25:11 437.432
